Find Starlink 32318

NORAD ID: 61864 Int'l Des: 2024-202 Owner: SPXS Country: US Constellation: starlink operational
LEOCIRCULAR

現在のビュー

3D地球を読み込み中...

About Starlink 32318

Starlink 32318 (NORAD 61864) is a starlink constellation satellite (v2 mini) launched Nov 7, 2024 by SPXS of US. It operates in LEO, CIRCULAR orbit with a mass of 730.00 kg.

Starlink 32318について

説明を読み込み中...

次回通過

Passes for default location (London). Set your location on the main map for personalized predictions.

高度履歴

Loading altitude history...

軌道要素

1 61864U 24202V 26171.27771172 .00000275 00000-0 19502-4 0 9991
2 61864 43.0010 18.9305 0001190 270.1216 89.9499 15.27581166 91023
Epoch: Jun 20, 2026 • Age: 23 hours

現在のステータス

高度 485.2 km
速度 7.63 km/s
衛星直下点 34.87°N, 158.63°E
打ち上げ日 Nov 7, 2024
運用期間 1.6 years
タイプ internet

技術仕様

分類 Payload
質量 730.00 kg
乾燥質量 700.00 kg
総質量 730.00 kg
長さ 0.30 m
直径 4.10 m
スパン 29.00 m
形状 Box + pan
製造者 SPXS
バスタイプ Starlink V2M
フェーズステータス In Orbit
所有者/国 SPXS/US

Most Searched